TimePST,TemperatureF,Dew PointF,Humidity,Sea Level PressureIn,VisibilityMPH,Wind Direction,Wind SpeedMPH,Gust SpeedMPH,PrecipitationIn,Events,Conditions,WindDirDegrees,DateUTC
12:15 AM,50.0,41.0,71,30.17,10.0,Calm,Calm,-,N/A,,Clear,0,2013-11-07 08:15:00
12:35 AM,50.0,41.0,71,30.17,10.0,Calm,Calm,-,N/A,,Clear,0,2013-11-07 08:35:00
12:55 AM,48.2,39.2,71,30.18,10.0,NNW,4.6,-,N/A,,Clear,340,2013-11-07 08:55:00
1:15 AM,50.0,39.2,66,30.18,10.0,Calm,Calm,-,N/A,,Clear,0,2013-11-07 09:15:00
1:35 AM,48.2,39.2,71,30.18,10.0,North,4.6,-,N/A,,Clear,350,2013-11-07 09:35:00
1:55 AM,48.2,41.0,76,30.17,10.0,Calm,Calm,-,N/A,,Clear,0,2013-11-07 09:55:00
2:15 AM,48.2,41.0,76,30.17,10.0,Calm,Calm,-,N/A,,Clear,0,2013-11-07 10:15:00
2:35 AM,48.2,39.2,71,30.16,10.0,Calm,Calm,-,N/A,,Clear,0,2013-11-07 10:35:00
2:55 AM,48.2,39.2,71,30.15,10.0,Calm,Calm,-,N/A,,Clear,0,2013-11-07 10:55:00
3:15 AM,48.2,39.2,71,30.15,10.0,Calm,Calm,-,N/A,,Clear,0,2013-11-07 11:15:00
3:35 AM,50.0,39.2,66,30.15,10.0,Calm,Calm,-,N/A,,Clear,0,2013-11-07 11:35:00
3:55 AM,50.0,39.2,66,30.15,10.0,Calm,Calm,-,N/A,,Clear,0,2013-11-07 11:55:00
4:15 AM,48.2,39.2,71,30.15,10.0,Calm,Calm,-,N/A,,Clear,0,2013-11-07 12:15:00
4:35 AM,50.0,39.2,66,30.15,10.0,Calm,Calm,-,N/A,,Clear,0,2013-11-07 12:35:00
4:55 AM,50.0,39.2,66,30.15,10.0,Calm,Calm,-,N/A,,Clear,0,2013-11-07 12:55:00
5:15 AM,46.4,37.4,71,30.16,10.0,Calm,Calm,-,N/A,,Unknown,0,2013-11-07 13:15:00
5:35 AM,46.4,39.2,76,30.15,10.0,Calm,Calm,-,N/A,,Unknown,0,2013-11-07 13:35:00
5:55 AM,46.4,39.2,76,30.16,10.0,Calm,Calm,-,N/A,,Unknown,0,2013-11-07 13:55:00
6:15 AM,46.4,39.2,76,30.16,10.0,Calm,Calm,-,N/A,,Unknown,0,2013-11-07 14:15:00
6:35 AM,41.0,37.4,87,30.16,10.0,Calm,Calm,-,N/A,,Unknown,0,2013-11-07 14:35:00
6:55 AM,46.4,39.2,76,30.17,10.0,Calm,Calm,-,N/A,,Unknown,0,2013-11-07 14:55:00
7:15 AM,46.4,37.4,71,30.17,10.0,Calm,Calm,-,N/A,,Unknown,0,2013-11-07 15:15:00
7:35 AM,48.2,39.2,71,30.18,1.2,Calm,Calm,-,N/A,,Haze,0,2013-11-07 15:35:00
7:55 AM,51.8,41.0,67,30.18,0.8,North,4.6,-,N/A,,Haze,360,2013-11-07 15:55:00
8:15 AM,55.4,41.0,58,30.18,10.0,NNE,5.8,-,N/A,,Clear,30,2013-11-07 16:15:00
8:35 AM,59.0,39.2,48,30.18,10.0,Calm,Calm,-,N/A,,Clear,0,2013-11-07 16:35:00
8:55 AM,59.0,41.0,51,30.18,10.0,North,4.6,-,N/A,,Clear,10,2013-11-07 16:55:00
9:15 AM,59.0,41.0,51,30.19,10.0,North,6.9,-,N/A,,Clear,360,2013-11-07 17:15:00
9:35 AM,59.0,41.0,51,30.18,10.0,NNE,4.6,-,N/A,,Clear,20,2013-11-07 17:35:00
9:55 AM,62.6,41.0,45,30.17,10.0,Calm,Calm,-,N/A,,Clear,0,2013-11-07 17:55:00
10:15 AM,66.2,37.4,35,30.17,10.0,SE,3.5,-,N/A,,Clear,140,2013-11-07 18:15:00
10:35 AM,66.2,35.6,32,30.17,10.0,Calm,Calm,-,N/A,,Clear,0,2013-11-07 18:35:00
10:55 AM,68.0,37.4,33,30.16,10.0,Calm,Calm,-,N/A,,Clear,0,2013-11-07 18:55:00
11:15 AM,68.0,35.6,30,30.16,10.0,Calm,Calm,-,N/A,,Clear,0,2013-11-07 19:15:00
11:35 AM,68.0,35.6,30,30.15,10.0,ENE,3.5,-,N/A,,Clear,70,2013-11-07 19:35:00
11:55 AM,69.8,35.6,28,30.14,10.0,Calm,Calm,-,N/A,,Clear,0,2013-11-07 19:55:00
12:15 PM,71.6,37.4,29,30.13,10.0,Calm,Calm,-,N/A,,Clear,0,2013-11-07 20:15:00
12:35 PM,71.6,35.6,27,30.12,10.0,Calm,Calm,-,N/A,,Clear,0,2013-11-07 20:35:00
12:55 PM,73.4,37.4,27,30.11,10.0,SE,5.8,-,N/A,,Clear,140,2013-11-07 20:55:00
1:15 PM,73.4,35.6,25,30.10,10.0,SE,3.5,-,N/A,,Clear,130,2013-11-07 21:15:00
1:35 PM,75.2,35.6,24,30.10,6.0,NNW,3.5,-,N/A,,Haze,330,2013-11-07 21:35:00
1:55 PM,75.2,39.2,27,30.10,10.0,SW,11.5,-,N/A,,Clear,230,2013-11-07 21:55:00
2:15 PM,75.2,39.2,27,30.09,10.0,SW,9.2,-,N/A,,Clear,220,2013-11-07 22:15:00
2:55 PM,75.2,37.4,25,30.08,10.0,SW,10.4,-,N/A,,Clear,230,2013-11-07 22:55:00
3:15 PM,75.2,37.4,25,30.08,10.0,West,5.8,-,N/A,,Clear,270,2013-11-07 23:15:00
3:35 PM,73.4,37.4,27,30.08,10.0,WSW,10.4,-,N/A,,Clear,240,2013-11-07 23:35:00
3:55 PM,71.6,37.4,29,30.08,10.0,WSW,8.1,-,N/A,,Clear,240,2013-11-07 23:55:00
4:15 PM,69.8,39.2,33,30.08,10.0,WSW,6.9,-,N/A,,Clear,250,2013-11-08 00:15:00
4:35 PM,68.0,39.2,35,30.08,10.0,SW,5.8,-,N/A,,Clear,230,2013-11-08 00:35:00
4:55 PM,66.2,42.8,43,30.08,10.0,WSW,3.5,-,N/A,,Clear,250,2013-11-08 00:55:00
5:15 PM,64.4,42.8,45,30.08,10.0,East,3.5,-,N/A,,Clear,90,2013-11-08 01:15:00
5:35 PM,62.6,46.4,55,30.09,10.0,Calm,Calm,-,N/A,,Clear,0,2013-11-08 01:35:00
5:55 PM,60.8,46.4,59,30.09,10.0,SE,3.5,-,N/A,,Clear,130,2013-11-08 01:55:00
6:15 PM,59.0,48.2,67,30.09,10.0,East,3.5,-,N/A,,Clear,100,2013-11-08 02:15:00
6:35 PM,57.2,48.2,72,30.10,10.0,ENE,5.8,-,N/A,,Clear,60,2013-11-08 02:35:00
6:55 PM,57.2,50.0,77,30.10,10.0,North,4.6,-,N/A,,Clear,10,2013-11-08 02:55:00
7:15 PM,55.4,48.2,77,30.09,10.0,Calm,Calm,-,N/A,,Clear,0,2013-11-08 03:15:00
7:35 PM,55.4,50.0,82,30.10,10.0,NE,5.8,-,N/A,,Clear,50,2013-11-08 03:35:00
7:55 PM,55.4,50.0,82,30.10,10.0,Calm,Calm,-,N/A,,Clear,0,2013-11-08 03:55:00
8:15 PM,55.4,50.0,82,30.09,10.0,East,3.5,-,N/A,,Clear,90,2013-11-08 04:15:00
8:35 PM,55.4,50.0,82,30.09,10.0,East,4.6,-,N/A,,Clear,100,2013-11-08 04:35:00
8:55 PM,50.0,48.2,94,30.09,10.0,Calm,Calm,-,N/A,,Clear,0,2013-11-08 04:55:00
9:15 PM,51.8,48.2,88,30.09,10.0,Calm,Calm,-,N/A,,Clear,0,2013-11-08 05:15:00
9:35 PM,50.0,48.2,94,30.09,10.0,Calm,Calm,-,N/A,,Clear,0,2013-11-08 05:35:00
9:55 PM,48.2,48.2,100,30.10,10.0,Calm,Calm,-,N/A,,Clear,0,2013-11-08 05:55:00
10:15 PM,48.2,48.2,100,30.10,10.0,Calm,Calm,-,N/A,,Clear,0,2013-11-08 06:15:00
10:35 PM,48.2,48.2,100,30.10,10.0,Calm,Calm,-,N/A,,Clear,0,2013-11-08 06:35:00
10:55 PM,48.2,48.2,100,30.10,10.0,Calm,Calm,-,N/A,,Clear,0,2013-11-08 06:55:00
11:15 PM,48.2,48.2,100,30.10,10.0,Calm,Calm,-,N/A,,Clear,0,2013-11-08 07:15:00
11:35 PM,48.2,48.2,100,30.10,10.0,Calm,Calm,-,N/A,,Clear,0,2013-11-08 07:35:00
11:55 PM,48.2,48.2,100,30.10,10.0,SSW,3.5,-,N/A,,Clear,200,2013-11-08 07:55:00